Location: Lafig�re
(44.4503°N, 4.0357°E)
Time: 15:31:31
(UTC+00:00)

Transit 2A Rocket - Pass Details

Date: 28 January 2021
Orbit: 594 x 908 km, 66.7° (Epoch: 06 March)

Event Time Altitude Azimuth Distance (km) Brightness Sun altitude
Rises 13:14:27 0° 274° (W) 3,219 8.4 25.0°
Reaches altitude 10° 13:18:46 10° 308° (NW) 2,207 7.3 24.8°
Maximum altitude 13:20:23 11° 327° (NNW) 2,080 7.0 24.7°
Drops below altitude 10° 13:21:58 10° 346° (NNW) 2,145 7.0 24.6°
Sets 13:25:59 0° 20° (NNE) 2,985 7.5 24.3°
